This is the latest recevied weather packets stored in our database for station/object N2XGL-1. If no packets are shown the sender has not sent any weather packets the latest 10 day(s).
| Time | Temp. | Humidity | Pressure | Rain* | Wind** | Luminosity | Snow |
|---|---|---|---|---|---|---|---|
| 1777896214 | 4.44° C | 58% | 1000.4 hPa | 0 mm | - | - | - |
| 1777895694 | 4.44° C | 58% | 1000.4 hPa | 0 mm | - | - | - |
| 1777895245 | 4.44° C | 57% | 1000.4 hPa | 0 mm | - | - | - |
| 1777895178 | 4.44° C | 57% | 1000.4 hPa | 0 mm | - | - | - |
| 1777894661 | 4.44° C | 56% | 1000.4 hPa | 0 mm | - | - | - |
| 1777893605 | 5° C | 55% | 1000.4 hPa | 0 mm | - | - | - |
| 1777893314 | 5° C | 54% | 1000.5 hPa | 0 mm | - | - | - |
| 1777893101 | 5° C | 54% | 1000.5 hPa | 0 mm | - | - | - |
| 1777892518 | 5° C | 55% | 1000.6 hPa | 0 mm | - | - | - |
| 1777892038 | 5° C | 56% | 1000.6 hPa | 0 mm | - | - | - |
| 1777891501 | 5° C | 57% | 1000.6 hPa | 0 mm | - | - | - |
| 1777890934 | 5° C | 59% | 1000.7 hPa | 0 mm | - | - | - |
| 1777890848 | 5.56° C | 60% | 1000.8 hPa | 0 mm | - | - | - |
| 1777890423 | 5.56° C | 60% | 1000.8 hPa | 0 mm | - | - | - |
| 1777889909 | 5.56° C | 54% | 1000.7 hPa | 0 mm | - | - | - |
| 1777889409 | 5.56° C | 52% | 1000.6 hPa | 0 mm | - | - | - |
| 1777888861 | 5.56° C | 52% | 1000.6 hPa | 0 mm | - | - | - |
| 1777888447 | 6.11° C | 53% | 1000.6 hPa | 0 mm | - | - | - |
| 1777888308 | 6.11° C | 53% | 1000.6 hPa | 0 mm | - | - | - |
| 1777887729 | 6.11° C | 51% | 1000.6 hPa | 0 mm | - | - | - |
| 1777887249 | 6.67° C | 50% | 1000.7 hPa | 0 mm | - | - | - |
| 1777887154 | 6.67° C | 50% | 1000.7 hPa | 0 mm | - | - | - |
| 1777886588 | 6.67° C | 49% | 1000.7 hPa | 0 mm | - | - | - |
| 1777886058 | 7.22° C | 50% | 1000.5 hPa | 0 mm | - | - | - |
| 1777885513 | 7.78° C | 49% | 1000.7 hPa | 0 mm | - | - | - |
* Rain latest hour (hover to see other rain measurements)
** Current wind speed in m/s (hover to see current wind gust speed)